BRADLEY Weather Reports


Display with metric or nautical units.
time (UTC)temp
F
wind
direction
speed
MPH
gust
MPH
rain 1hr
in
rain 24hr
in
rain mn
in
humidity
%
barometer
mb
20260505041003 52 360 1.0 3.0 0.00 0.00 0.00 51
20260505040003 53 360 1.0 3.0 0.00 0.00 0.00 51
20260505035002 53 360 1.0 3.0 0.00 0.00 0.00 51
20260505034002 53 360 2.0 4.0 0.00 0.00 0.00 51
20260505033003 53 360 2.0 6.0 0.00 0.00 0.00 51
20260505032003 53 360 2.0 5.0 0.00 0.00 0.00 51
20260505031003 53 360 2.0 4.0 0.00 0.00 0.00 51
20260505030003 53 360 1.0 3.0 0.00 0.00 0.00 51
20260505025003 54 360 1.0 3.0 0.00 0.00 0.00 51
20260505024003 54 360 1.0 2.0 0.00 0.00 0.00 52
20260505023004 53 360 1.0 3.0 0.00 0.00 0.00 51
20260505022003 54 360 2.0 4.0 0.00 0.00 0.00 52
20260505021003 55 360 2.0 6.0 0.00 0.00 0.00 52
20260505020003 55 360 2.0 6.0 0.00 0.00 0.00 52
20260505015002 56 360 3.0 5.0 0.00 0.00 0.00 53
20260505014002 56 360 3.0 5.0 0.00 0.00 0.00 53
20260505013003 57 360 3.0 6.0 0.00 0.00 0.00 53
20260505012003 58 360 3.0 7.0 0.00 0.00 0.00 54
20260505011003 58 360 3.0 7.0 0.00 0.00 0.00 54
20260505010004 58 360 3.0 5.0 0.00 0.00 0.00 54
20260505005002 60 360 3.0 5.0 0.00 0.00 0.00 55
20260505004003 60 360 2.0 5.0 0.00 0.00 0.00 55
20260505003003 60 360 2.0 5.0 0.00 0.00 0.00 55
20260505002003 60 360 2.0 5.0 0.00 0.00 0.00 55
20260505001003 60 360 3.0 7.0 0.00 0.00 0.00 55
20260505000004 60 360 3.0 5.0 0.00 0.00 0.00 55
20260504235002 61 360 2.0 5.0 0.00 0.00 0.00 55
20260504234002 61 360 3.0 5.0 0.00 0.00 0.00 55
20260504233003 61 360 3.0 9.0 0.00 0.00 0.00 55
20260504232003 61 360 2.0 6.0 0.00 0.00 0.00 55
20260504231003 62 360 4.0 6.0 0.00 0.00 0.00 56
20260504230004 63 360 3.0 10.0 0.00 0.00 0.00 56
20260504225003 63 360 3.0 9.0 0.00 0.00 0.00 56
20260504224002 63 360 2.0 6.0 0.00 0.00 0.00 56
20260504223002 63 360 4.0 7.0 0.00 0.00 0.00 56
20260504222003 63 360 4.0 7.0 0.00 0.00 0.00 56
20260504221003 62 360 4.0 10.0 0.00 0.00 0.00 56
20260504220004 62 360 3.0 5.0 0.00 0.00 0.00 56
20260504215003 62 360 3.0 6.0 0.00 0.00 0.00 56
20260504214003 63 360 2.0 6.0 0.00 0.00 0.00 56
20260504213003 62 360 4.0 8.0 0.00 0.00 0.00 56
20260504212003 63 360 3.0 8.0 0.00 0.00 0.00 56
20260504211002 63 360 3.0 6.0 0.00 0.00 0.00 56
20260504210004 63 360 3.0 6.0 0.00 0.00 0.00 56
20260504205003 62 360 2.0 5.0 0.00 0.00 0.00 56
20260504204004 63 360 2.0 7.0 0.00 0.00 0.00 56
20260504203003 62 360 2.0 6.0 0.00 0.00 0.00 56
20260504202002 62 360 2.0 5.0 0.00 0.00 0.00 56
20260504201002 62 360 2.0 6.0 0.00 0.00 0.00 56
20260504200002 61 360 1.0 6.0 0.00 0.00 0.00 55
20260504195003 61 360 2.0 5.0 0.00 0.00 0.00 55
20260504194003 61 360 2.0 7.0 0.00 0.00 0.00 55
20260504193003 60 360 2.0 5.0 0.00 0.00 0.00 55
20260504192003 60 360 1.0 5.0 0.00 0.00 0.00 55
20260504191003 60 360 1.0 4.0 0.00 0.00 0.00 55
20260504190003 59 360 2.0 5.0 0.00 0.00 0.00 54
20260504185003 56 360 2.0 4.0 0.00 0.00 0.00 53
20260504184003 56 360 2.0 4.0 0.00 0.00 0.00 53
20260504183003 56 115 0.0 2.0 0.00 0.00 0.00 53
20260504182003 56 360 0.0 2.0 0.00 0.00 0.00 53
20260504181003 55 55 0.0 1.0 0.00 0.00 0.00 52
20260504180003 55 0 0.0 2.0 0.00 0.00 0.00 52
20260504175003 54 360 1.0 2.0 0.00 0.00 0.00 52
20260504174003 54 360 0.0 1.0 0.00 0.00 0.00 52
20260504173003 54 360 0.0 1.0 0.00 0.00 0.00 52
20260504172003 53 360 0.0 3.0 0.00 0.00 0.00 51
20260504171003 53 360 0.0 3.0 0.00 0.00 0.00 51
20260504151003 51 360 0.0 1.0 0.00 0.00 0.00 50
20260504141003 51 360 1.0 3.0 0.00 0.00 0.00 50
20260504082003 55 360 1.0 2.0 0.00 0.00 0.00 53
20260504081002 57 360 1.0 2.0 0.00 0.00 0.00 53